Golden Meadow, LA

12:44 AM CST on February 20, 2017 (GMT -0600)
Port Fourchon Terminal

Weather History for KXPY - March, 2014

Change the Weather History Date:

Wednesday, March 12, 2014

  Actual Average (K9F2) Record (K9F2)
Temperature  
Mean Temperature 63 °F -  
Max Temperature 69 °F 64 °F 80 °F (2006)
Min Temperature 57 °F 58 °F 42 °F (1998)
Degree Days  
Heating Degree Days 2    
Growing Degree Days 13 (Base 50)    
Moisture  
Dew Point 56 °F    
Average Humidity 77    
Maximum Humidity 100    
Minimum Humidity 45    
Precipitation  
Precipitation 0.00 in - - ()
Sea Level Pressure  
Sea Level Pressure 29.91 in    
Wind  
Wind Speed 11 mph (WNW)    
Max Wind Speed 24 mph    
Max Gust Speed 32 mph    
Visibility 9 miles    
Events      
Averages and records for this station are not official NWS values.
T = Trace of Precipitation, MM = Missing Value Source: NWS Daily Summary

Daily Weather History Graph

Daily Weather History Graph

Search for Another Location

Airport or City:

Trip Planner

Search our weather history database for the weather conditions in past years. The results will help you decide how hot, cold, wet, or windy it might be!

Date:

Astronomy

Mar. 12, 2014 Rise Set
Actual Time 7:13 AM CDT 7:07 PM CDT
Civil Twilight 6:50 AM CDT 7:31 PM CDT
Nautical Twilight 6:22 AM CDT 7:58 PM CDT
Astronomical Twilight 5:55 AM CDT 8:26 PM CDT
Moon 3:50 PM CDT (3/12) 4:31 AM CDT (3/12)
Length of Visible Light 12h 40m
Length of Day
11h 53m
Waxing Gibbous, 85% of the Moon is Illuminated
Mar 12
Waxing Gibbous
Mar 16
Full
Mar 23
Last Quarter
Mar 30
New
Apr 7
First Quarter

Hourly Weather History & Observations

Time (CDT) Temp. Dew Point Humidity Pressure Visibility Wind Dir Wind Speed Gust Speed Precip Events Conditions
12:15 AM 62.6 °F 62.6 °F 100% 29.78 in 9.0 mi West 9.2 mph - N/A   Overcast
12:35 AM 62.6 °F 62.6 °F 100% 29.78 in 10.0 mi WSW 5.8 mph - N/A   Overcast
12:55 AM 62.6 °F 62.6 °F 100% 29.78 in 10.0 mi WSW 6.9 mph - N/A   Overcast
1:15 AM 62.6 °F 62.6 °F 100% 29.79 in 10.0 mi West 5.8 mph - N/A   Overcast
1:35 AM 62.6 °F 62.6 °F 100% 29.79 in 9.0 mi West 4.6 mph - N/A   Overcast
1:55 AM 62.6 °F 62.6 °F 100% 29.79 in 6.0 mi West 5.8 mph - N/A   Overcast
2:15 AM 62.6 °F 62.6 °F 100% 29.79 in 8.0 mi West 5.8 mph - N/A   Overcast
2:35 AM 62.6 °F 62.6 °F 100% 29.79 in 9.0 mi West 6.9 mph - N/A   Overcast
2:55 AM 62.6 °F 62.6 °F 100% 29.79 in 10.0 mi West 8.1 mph - N/A   Overcast
3:15 AM 62.6 °F 62.6 °F 100% 29.79 in 9.0 mi West 5.8 mph - N/A   Overcast
3:35 AM 62.6 °F 62.6 °F 100% 29.79 in 7.0 mi West 6.9 mph - N/A   Overcast
3:55 AM 62.6 °F 62.6 °F 100% 29.79 in 3.0 mi West 9.2 mph - N/A   Overcast
4:15 AM 62.6 °F 60.8 °F 94% 29.79 in 6.0 mi West 9.2 mph - N/A   Overcast
4:35 AM 62.6 °F 60.8 °F 94% 29.79 in 7.0 mi WSW 8.1 mph - N/A   Overcast
4:55 AM 62.6 °F 60.8 °F 94% 29.79 in 8.0 mi WSW 6.9 mph 12.7 mph N/A   Overcast
5:15 AM 62.6 °F 62.6 °F 100% 29.79 in 8.0 mi WSW 5.8 mph - N/A   Overcast
5:35 AM 62.6 °F 60.8 °F 94% 29.80 in 9.0 mi WSW 6.9 mph - N/A   Overcast
5:55 AM 62.6 °F 60.8 °F 94% 29.80 in 9.0 mi SW 8.1 mph - N/A   Mostly Cloudy
6:15 AM 62.6 °F 60.8 °F 94% 29.81 in 3.0 mi WSW 6.9 mph - N/A   Mostly Cloudy
6:35 AM 62.6 °F 60.8 °F 94% 29.82 in 4.0 mi SW 6.9 mph - N/A   Overcast
6:55 AM 62.6 °F 62.6 °F 100% 29.83 in 9.0 mi WSW 9.2 mph - N/A   Overcast
7:15 AM 64.4 °F 62.6 °F 94% 29.84 in 9.0 mi West 12.7 mph 21.9 mph N/A   Overcast
7:35 AM 64.4 °F 62.6 °F 94% 29.85 in 8.0 mi West 12.7 mph - N/A   Overcast
7:55 AM 64.4 °F 62.6 °F 94% 29.84 in 10.0 mi West 15.0 mph - N/A   Overcast
8:15 AM 64.4 °F 62.6 °F 94% 29.86 in 9.0 mi West 15.0 mph 20.7 mph N/A   Overcast
8:35 AM 64.4 °F 60.8 °F 88% 29.87 in 10.0 mi West 15.0 mph - N/A   Overcast
8:55 AM 66.2 °F 60.8 °F 83% 29.88 in 10.0 mi West 12.7 mph 20.7 mph N/A   Overcast
9:15 AM 64.4 °F 60.8 °F 88% 29.89 in 10.0 mi West 11.5 mph 18.4 mph N/A   Overcast
9:35 AM 64.4 °F 60.8 °F 88% 29.90 in 10.0 mi West 12.7 mph 18.4 mph N/A   Overcast
9:55 AM 64.4 °F 60.8 °F 88% 29.91 in 9.0 mi WNW 16.1 mph 23.0 mph N/A   Overcast
10:15 AM 64.4 °F 60.8 °F 88% 29.90 in 10.0 mi West 13.8 mph 20.7 mph N/A   Overcast
10:35 AM 66.2 °F 60.8 °F 83% 29.91 in 9.0 mi WNW 12.7 mph 19.6 mph N/A   Overcast
10:55 AM 66.2 °F 60.8 °F 83% 29.91 in 9.0 mi WNW 13.8 mph 20.7 mph N/A   Overcast
11:15 AM 66.2 °F 60.8 °F 83% 29.92 in 10.0 mi WNW 9.2 mph 19.6 mph N/A   Overcast
11:35 AM 66.2 °F 60.8 °F 83% 29.92 in 10.0 mi West 12.7 mph - N/A   Overcast
11:55 AM 66.2 °F 62.6 °F 88% 29.92 in 10.0 mi West 11.5 mph - N/A   Overcast
12:15 PM 68.0 °F 62.6 °F 83% 29.92 in 10.0 mi West 12.7 mph - N/A   Overcast
12:35 PM 68.0 °F 62.6 °F 83% 29.92 in 10.0 mi WNW 16.1 mph 21.9 mph N/A   Overcast
12:55 PM 68.0 °F 60.8 °F 78% 29.91 in 10.0 mi WNW 12.7 mph 25.3 mph N/A   Scattered Clouds
1:15 PM 68.0 °F 60.8 °F 78% 29.90 in 10.0 mi WNW 13.8 mph - N/A   Clear
1:35 PM 69.8 °F 60.8 °F 73% 29.90 in 10.0 mi WNW 13.8 mph 19.6 mph N/A   Clear
1:55 PM 69.8 °F 60.8 °F 73% 29.90 in 10.0 mi WNW 13.8 mph 20.7 mph N/A   Mostly Cloudy
2:15 PM 69.8 °F 60.8 °F 73% 29.90 in 10.0 mi NW 21.9 mph - N/A   Scattered Clouds
2:35 PM 68.0 °F 60.8 °F 78% 29.90 in 10.0 mi NNW 19.6 mph 26.5 mph N/A   Mostly Cloudy
2:55 PM 68.0 °F 59.0 °F 73% 29.90 in 9.0 mi NNW 19.6 mph - N/A   Overcast
3:15 PM 68.0 °F 59.0 °F 73% 29.90 in 9.0 mi NW 15.0 mph 21.9 mph N/A   Overcast
3:35 PM 68.0 °F 59.0 °F 73% 29.91 in 8.0 mi NNW 17.3 mph - N/A   Overcast
3:55 PM 66.2 °F 57.2 °F 73% 29.91 in 6.0 mi North 16.1 mph 23.0 mph N/A   Haze
4:15 PM 66.2 °F 57.2 °F 73% 29.91 in 8.0 mi NNW 15.0 mph 20.7 mph N/A   Overcast
4:35 PM 68.0 °F 57.2 °F 68% 29.91 in 9.0 mi NNW 15.0 mph - N/A   Mostly Cloudy
4:55 PM 68.0 °F 55.4 °F 64% 29.91 in 9.0 mi NNW 13.8 mph 20.7 mph N/A   Partly Cloudy
5:15 PM 69.8 °F 53.6 °F 56% 29.91 in 10.0 mi NNW 19.6 mph - N/A   Clear
5:35 PM 69.8 °F 51.8 °F 53% 29.92 in 10.0 mi NNW 16.1 mph 26.5 mph N/A   Clear
5:55 PM 69.8 °F 51.8 °F 53% 29.93 in 10.0 mi NNW 15.0 mph 21.9 mph N/A   Clear
6:15 PM 68.0 °F 51.8 °F 56% 29.94 in 10.0 mi NNW 13.8 mph 21.9 mph N/A   Clear
6:35 PM 68.0 °F 51.8 °F 56% 29.96 in 9.0 mi North 17.3 mph - N/A   Clear
6:55 PM 66.2 °F 50.0 °F 56% 29.97 in 10.0 mi North 20.7 mph 27.6 mph N/A   Clear
7:15 PM 66.2 °F 48.2 °F 52% 29.99 in 10.0 mi North 18.4 mph 26.5 mph N/A   Clear
7:35 PM 64.4 °F 46.4 °F 52% 30.00 in 10.0 mi North 23.0 mph 28.8 mph N/A   Clear
7:55 PM 62.6 °F 44.6 °F 52% 30.02 in 10.0 mi North 21.9 mph 32.2 mph N/A   Clear
8:15 PM 62.6 °F 44.6 °F 52% 30.04 in 10.0 mi North 21.9 mph 28.8 mph N/A   Clear
8:35 PM 62.6 °F 42.8 °F 48% 30.06 in 10.0 mi North 24.2 mph 31.1 mph N/A   Clear
8:55 PM 60.8 °F 42.8 °F 52% 30.07 in 10.0 mi North 20.7 mph 28.8 mph N/A   Clear
9:15 PM 60.8 °F 41.0 °F 48% 30.08 in 10.0 mi North 20.7 mph - N/A   Clear
9:35 PM 59.0 °F 42.8 °F 55% 30.09 in 10.0 mi North 12.7 mph 21.9 mph N/A   Clear
9:55 PM 59.0 °F 39.2 °F 48% 30.11 in 10.0 mi North 17.3 mph 24.2 mph N/A   Clear
10:15 PM 59.0 °F 39.2 °F 48% 30.12 in 10.0 mi North 24.2 mph 31.1 mph N/A   Clear
10:35 PM 59.0 °F 39.2 °F 48% 30.13 in 10.0 mi North 20.7 mph 29.9 mph N/A   Clear
10:55 PM 59.0 °F 37.4 °F 45% 30.14 in 10.0 mi North 21.9 mph 31.1 mph N/A   Clear
11:15 PM 57.2 °F 37.4 °F 48% 30.15 in 10.0 mi North 17.3 mph 26.5 mph N/A   Clear
11:35 PM 57.2 °F 39.2 °F 51% 30.16 in 10.0 mi North 11.5 mph 23.0 mph N/A   Clear
11:55 PM 57.2 °F 39.2 °F 51% 30.16 in 10.0 mi NNE 13.8 mph 21.9 mph N/A   Clear